DELTA 1 DEB, 2118

Orbit data source: Space-Track

DELTA 1 DEB, 2118 is space debris in SSO originally from a launch on Thu, 03 Feb 1966 UTC launched from the Air Force Eastern Test Range (AFETR). Debris objects in space refer to the collection of defunct objects orbiting the Earth. Examples of debris include non-operational satellites, rocket bodies, and fragments generated from explosions, collisions, or faulty payload assembly.

Loading next visibility...
Identifier
2118, 1966-008D
Orbit
SSO
Country
Flag of USUS
Related business
Manufacturer
Unknown
Mission
Spacecraft
Bus & Motor
Unknown
Mass
~1 kg wet, ~1 kg dry
Launch date (UTC)
1966-02-03 (60 years ago)
Launch vehicle
Unknown
Launch site
Air Force Eastern Test Range (AFETR)
Object type
Payload
Rocket body
Debris
Shape & HBR
Unknown
Radar Cross Section
Medium (>0.1 m² and <1 m²)

Expand to show TLE details & history
Last TLE update: 5 days ago

TLE from 5 days ago
0 DELTA 1 DEB
1 02118U 66008D   26159.11017689  .00000646  00000-0  17341-3 0  9993
2 02118  98.0587 291.6581 0124587 250.5895 108.1799 14.46900626134511
Epoch: 2026-06-08T02:38Z
TLE epoch observation values (Epoch: 2026-06-08T02:38:39.283Z)
Latitude
0.00002°
Longitude
-4.50732°
Altitude
767.411 km
Speed
7.455 km/s
True Right ascension
19h 26m 37s
True Declination
0° 00' 00"
Sunlit
Object was in full shadow at epoch
Visualization orbit readout
Latitude
Unknown
Longitude
Unknown
Altitude
Unknown
Speed
Unknown
Apparent Right ascension
Unknown
Apparent Declination
Unknown
Sunlit
N/A
Visualization observer readout
Local Sidereal Time
16:20:21
Azimuth
Unknown
Elevation
Unknown
Doppler factor
Unknown
Orbital elements
Apogee altitude
821.475 km
Perigee altitude
644.287 km
Semi-major axis
7,111.018 km
Eccentricity
0.01246
Inclination
98.0587°
RAAN
291.6581°
Arg. of periapsis
250.5895°
True anomaly
109.52961°
Mean anomaly
108.1799°
Eccentric anomaly
108.85542°
Mean motion
3.61947 °/min
Orbital period
99.46 mins
BSTAR
0.00017341
Loading maneuver chart data...
Computing Atmospheric mass density...
Loading historical data...
Loading historical data...
Loading historical data...
Loading historical data...
Loading historical data...
Loading historical data...
Loading historical data...
Other satellites on launch #8 in the year 1966 (1966-02-03 UTC)

Documentation

Showing up to 5 results
|